Regional Weather Roundup
Issued by NWS Cleveland, OH

Home | Current Version | Previous Version | Text Only | Print | Product List | Glossary On
Versions: 1 2 3 4 5 6 7 8 9 10 11 12 13 14 15 16 17 18 19 20 21 22 23 24 25 26 27 28 29 30 31 32 33 34 35 36 37 38 39 40 41 42 43 44 45 46 47 48 49 50
000
ASUS41 KCLE 211302
RWRCLE
OHIO REGIONAL WEATHER ROUNDUP
NATIONAL WEATHER SERVICE CLEVELAND, OH
900 AM EDT SUN SEP 21 2014

NOTE: "FAIR" INDICATES FEW OR NO CLOUDS BELOW 12,000 FEET WITH NO
SIGNIFICANT WEATHER AND/OR OBSTRUCTIONS TO VISIBILITY.

OHZ001>008-015>018-024>027-034-035-043-044-211400-
   NORTHWEST OHIO

CITY           SKY/WX    TMP DP  RH WIND       PRES   REMARKS
DEFIANCE       SUNNY    N/A N/A N/A W10G18    29.75R
FINDLAY        PTSUNNY   67  59  75 W20G29    29.74R
TOLEDO EXPRESS SUNNY     65  59  81 W17       29.71R
TOLEDO EXEC    SUNNY     67  59  75 W16G23    29.71R
LIMA           PTSUNNY   70  64  81 W17G24    29.77R
$$

OHZ009>014-019>023-028>033-038-089-211400-
   NORTHEAST OHIO

CITY           SKY/WX    TMP DP  RH WIND       PRES   REMARKS
CLE-HOPKINS    CLOUDY    69  66  90 SW12G23   29.71R
CLE-LAKEFRONT  PTSUNNY   72  66  81 SW18G26   29.67R
CUY CO. ARPT   PTSUNNY   72  68  88 SW17      29.69S
LORAIN-ELYRIA  CLOUDY    73  65  75 W14G25    29.71R
ASHTABULA      PTSUNNY   68  65  90 SW13      29.68F
AKRON-CANTON   MOSUNNY   71  64  78 SW14      29.74F
WOOSTER        PTSUNNY   71  65  81 SW10      29.74S
MANSFIELD      CLOUDY    70  65  84 W15G26    29.75R
YOUNGSTOWN     CLOUDY    68  65  90 SW10      29.73F
$$

OHZ042-051>053-060>062-070>072-077>081-211400-
  SOUTHWEST OHIO

CITY           SKY/WX    TMP DP  RH WIND       PRES   REMARKS
CINC-COVINGTON PTSUNNY   72  66  81 W8        29.85S
CINC-LUNKEN    MOSUNNY   73  67  81 SW10      29.83F
HAMILTON       CLOUDY    72  68  87 W8        29.84R
DAYTON         PTSUNNY   72  67  84 W16G23    29.81S
WRIGHT-PAT AFB MOSUNNY   71  66  85 SW15G23   29.80R
DAYTON GENERAL PTSUNNY   71  67  87 W10G20    29.82R
WILMINGTON     CLOUDY    70  65  84 W13       29.82S
$$

OHZ036-037-039>041-045>050-054>059-063>069-073>076-082>088-211400-
  CENTRAL AND SOUTHEAST OHIO

CITY           SKY/WX    TMP DP  RH WIND       PRES   REMARKS
COLUMBUS       PTSUNNY   72  64  76 SW10      29.77F
OSU AIRPORT    CLOUDY    71  66  84 SW8       29.78R
BOLTON FIELD   CLOUDY    70  66  88 SW9       29.80S
RICKENBACK AFB CLOUDY    69  65  86 SW12G17   29.79S
NEWARK         CLOUDY    71  65  81 SW12      29.78F
MARION         PTSUNNY   71  65  81 W14       29.76R
LANCASTER      CLOUDY    72  65  78 MISG      29.80S
ZANESVILLE     PTSUNNY   70  63  78 S12       29.80S
NEW PHILLY     CLOUDY    70  64  81 SW9       29.77F
$$



USA.gov is the U.S. government's official web portal to all federal, state and local government web resources and services.